Regional Weather Roundup
Issued by NWS Wilmington, NC

Home | Current Version | Previous Version | Text Only | Print | Product List | Glossary On
Versions: 1 2 3 4 5 6 7 8 9 10 11 12 13 14 15 16 17 18 19 20 21 22 23 24 25 26 27 28 29 30 31 32 33 34 35 36 37 38 39 40 41 42 43 44 45 46 47 48 49 50
000
ASUS42 KILM 010713
RWRILM
RWRILM
REGIONAL HOURLY WEATHER ROUNDUP
NATIONAL WEATHER SERVICE WILMINGTON NC
300 AM EDT SAT AUG 01 2015

NOTE: "FAIR" INDICATES FEW OR NO CLOUDS BELOW 12,000 FEET WITH NO
SIGNIFICANT WEATHER AND/OR OBSTRUCTIONS TO VISIBILITY.

...............WFO WILMINGTON COUNTY WARNING AREA...............

......COASTAL NC AND SC COUNTIES......

CITY           SKY/WX    TMP DP  RH WIND       PRES   REMARKS
WILMINGTON     MOCLDY    76  75  97 CALM      29.91F
N MYRTLE BEACH PTCLDY    75  73  93 CALM      29.92S
MYRTLE BEACH   CLEAR     77  72  83 CALM      29.94S

......INLAND NC AND SC COUNTIES.......

CITY           SKY/WX    TMP DP  RH WIND       PRES   REMARKS
LUMBERTON      MOCLDY    75  71  87 CALM      29.92S
ELIZABETHTOWN  PTCLDY    74  73  95 SE3       29.92F
WHITEVILLE     PTCLDY    73  71  93 CALM      29.91F
FLORENCE       PTCLDY    75  71  87 CALM      29.92F
DARLINGTON     CLEAR     75  68  78 CALM      29.94S

....................REST OF NORTH CAROLINA......................

.........EASTERN NC.........

CITY           SKY/WX    TMP DP  RH WIND       PRES   REMARKS
CAPE HATTERAS  MOCLDY    77  70  79 NE5       29.91F
JACKSONVILLE   PTCLDY    73  66  78 CALM      29.91F
MOREHEAD CITY  MOCLDY    79  77  94 W3        29.90F
KENANSVILLE    PTCLDY   N/A N/A N/A CALM      29.92F
NEW BERN       PTCLDY    74  71  91 CALM      29.91F
ELIZABETH CITY CLEAR     69  67  93 S5        29.91F

.........CENTRAL NC.........

CITY           SKY/WX    TMP DP  RH WIND       PRES   REMARKS
RALEIGH DURHAM PTCLDY    69  65  86 CALM      29.94S
ROCKY MOUNT    MOCLDY    71  66  84 CALM      29.92F
ROANOKE RAPIDS NOT AVBL
FAYETTEVILLE   MOCLDY    75  72  90 N3        29.91F
HOFFMAN        PTCLDY    71  67  88 NW2       29.93F

.........WESTERN NC.........

CITY           SKY/WX    TMP DP  RH WIND       PRES   REMARKS
CHARLOTTE      CLEAR     70  61  73 NW7       29.97F
GREENSBORO     CLEAR     71  60  68 CALM      29.97F
HICKORY        NOT AVBL
BOONE          NOT AVBL
ASHEVILLE      NOT AVBL

.....................REST OF SOUTH CAROLINA.....................

.........EASTERN SC.........

CITY           SKY/WX    TMP DP  RH WIND       PRES   REMARKS
CHARLESTON     PTCLDY    79  74  84 CALM      29.92R
BEAUFORT MCAS  CLOUDY    77  76  96 CALM      29.91S
HILTON HEAD    PTCLDY    77  75  94 CALM      29.93S

.........CENTRAL SC.........

CITY           SKY/WX    TMP DP  RH WIND       PRES   REMARKS
COLUMBIA       PTCLDY    78  71  79 CALM      29.92F
ORANGEBURG     PTCLDY    75  72  90 S3        29.93F
SUMTER SHAW    PTCLDY    76  71  85 SW3       29.90F

.........WESTERN SC.........

CITY           SKY/WX    TMP DP  RH WIND       PRES   REMARKS
GREENVILLE     NOT AVBL
ROCK HILL      CLEAR     68  63  84 N5        29.96F
ANDERSON       CLEAR     75  60  59 NE6       29.96F
CLEMSON        NOT AVBL
GREENWOOD      CLEAR     74  66  76 N5        29.96F


...................COASTAL AND OFFSHORE REPORTS..................

................LOCAL PIERS AND NC RESERVE................


STATION/POSITION TIME  SKY/WX   TEMP    WIND        PRES    VSBY
                                AIR SEA DIR/SP/G
                 (UTC)          (F)     (DEG/KT/KT) (MB)    (MI)
JOHNY MRCER PIER 0600            78 85  320/  5/  8 1012.7F
NC RESRV MASNBRO NOT AVBL
OCEAN CREST PIER NOT AVBL
SPRINGMAID  PIER 0600            77 87  300/  5/  7 1013.1F


................COASTAL AND OFFSHORE BUOYS................


STATION/POSITION TIME  SKY/WX   TEMP    WIND        PRES    VSBY
                                AIR SEA DIR/SP/G
                 (UTC)          (F)     (DEG/KT/KT) (MB)    (MI)
DIMNDSHOAL 41025 0650            82 85  100/  6/  8 1012.8F
WVE H/P(F/S)=  4/ 8 WND WVE H/P(F/S)=  2/ 4 SWL H/P/D(F/S/D)=  3/160/ 8

CAPE LOOKOUT     0600            78     250/  5/  7 1012.3F
ONSLOW BAY 41036 NOT AVBL
5 WRITEBCH 41038 0608            81 83  260/  8/ 12 1013.1F
MASONBORO  41110 0619               83                N/A
WVE H/P(F/S)=  3/ 6 WND WVE H/P(F/S)=  3/ 6

WILM HARBR 41108 0611               83                N/A
WVE H/P(F/S)=  4/ 5 WND WVE H/P(F/S)=  5/ 5

27WRITEBCH 41037 0600            78 82  250/ 12/ 14   N/A
FRYING PAN 41013 0650            84 84  230/ 16/ 19 1012.9F
WVE H/P(F/S)=  5/ 8 WND WVE H/P(F/S)=  5/ 6 SWL H/P/D(F/S/D)=  3/150/ 8

SUNST NRSH 41024 0608            77     360/  8/ 10 1013.2F
CAPRS NRSH 41029 0608            83     240/  8/ 12 1013.3F
EDISTO     41004 0650            83 84  230/ 10/ 12 1012.9F
WVE H/P(F/S)=  5/ 8 WND WVE H/P(F/S)=  2/ 4 SWL H/P/D(F/S/D)=  5/ 8



..........OFFSHORE BUOYS BEYOND 100 NM OFFSHORE...........
.....IN A TRIANGLE---HAT TO BERMUDA TO BAHAMAS TO HAT.....


STATION/POSITION TIME  SKY/WX   TEMP    WIND        PRES    VSBY
                                AIR SEA DIR/SP/G
                 (UTC)          (F)     (DEG/KT/KT) (MB)    (MI)
150E HAT   41001 0600            79 82  270/ 12/ 17 1013.6F
W BERMUDA  41048 0650            81 81  210/ 16/ 17 1017.9F
WVE H/P(F/S)=  6/ 8 WND WVE H/P(F/S)=  3/ 6 SWL H/P/D(F/S/D)=  5/250/ 8

ATLANTIC S 41049 0650            83 86   80/  6/  8 1020.7F
WVE H/P(F/S)=  4/ 8 SWL H/P/D(F/S/D)=  3/ 50/ 8

E BAHAMAS  41046 0650            83 85  110/ 12/ 14 1018.7F
WVE H/P(F/S)=  5/ 7 WND WVE H/P(F/S)=  3/ 5 SWL H/P/D(F/S/D)=  3/120/ 7

NE BAHAMAS 41047 0650            83 84  160/ 10/ 12 1018.8F
WVE H/P(F/S)=  4/ 9 WND WVE H/P(F/S)=  2/ 4 SWL H/P/D(F/S/D)=  3/ 80/ 9

120E CANVRL41010 0620            82 84  190/ 16/ 17 1016.9F

END



USA.gov is the U.S. government's official web portal to all federal, state and local government web resources and services.